Location: Mascot Post Office (historical)
(40.2645°N, 99.5462°W)
Time: 01:20:28
(UTC+00:00)

IRS-1C - Pass Details

Date: 14 July 2020
Orbit: 815 x 817 km, 98.8° (Epoch: 14 August)

Event Time Altitude Azimuth Distance (km) Brightness Sun altitude
Rises 09:38:20 0° 9° (N) 3,352 8.3 -16.1°
Reaches altitude 10° 09:40:43 10° 5° (N) 2,415 7.4 -15.8°
Maximum altitude 09:45:57 57° 288° (WNW) 958 4.3 -15.1°
Enters shadow 09:49:19 22° 217° (SW) 1,724 5.2 -14.6°
